[[{"header":{"parameterUnit":"m.s-1","parameterCategory":1,"la1":30.2991,"la2":30.254,"lo1":-89.0895,"lo2":-89.0444,"dy":0.0017,"dx":0.0017,"nx":28,"ny":28,"refTime":"2024-02-18T03:00:00:Z","depth":0,"parameterNumber":2,"parameterNumberName":"U-component_of_WINDS"},"data":[0,0,0,0,0,0,0,0,0,0,0,0,0,0,0,0,0,0,0,0,0,0,0,0,0,0,0,0,0,0,0,0,0,0,0,0,0,0,0,0,0,0,0,0,0,0,0,0,0,0,0,0,0,0,0,0,0,0,-0.0593,-0.0593,0,-0.0599,-0.0599,-0.0599,-0.0615,-0.0615,-0.0616,-0.0616,-0.0621,-0.0621,-0.062,0,0,0,0,0,0,0,0,0,0,0,0,0,-0.0595,-0.0595,-0.0593,-0.0593,-0.0593,-0.0599,-0.0599,-0.0599,-0.0615,-0.0615,-0.0616,-0.0616,-0.0621,-0.0621,-0.062,0,0,0,0,0,0,0,0,0,0,0,0,0,-0.0597,-0.0595,-0.0593,-0.0602,-0.0603,-0.0599,-0.0599,-0.0599,-0.0615,-0.0615,-0.0616,-0.0616,-0.0621,-0.0621,-0.062,-0.0608,0,0,-0.0619,-0.0619,0,0,0,0,0,0,0,0,-0.0597,-0.0597,-0.0601,-0.0601,-0.0602,-0.0607,-0.0601,-0.0602,-0.0615,-0.061,-0.0616,-0.0617,-0.0616,-0.0616,-0.0616,-0.0608,-0.0608,-0.0619,-0.0619,-0.0619,-0.0619,0,0,0,0,0,0,0,-0.0596,-0.0596,-0.0595,-0.0601,-0.0602,-0.0605,-0.0606,-0.0601,-0.061,-0.0611,-0.0612,-0.0612,-0.0616,-0.0616,-0.0616,-0.0608,-0.0619,-0.0619,-0.0619,-0.0619,-0.0589,-0.0589,0,0,0,0,0,0,-0.0595,-0.0596,-0.0595,-0.0596,-0.0601,-0.0605,-0.0606,-0.0605,-0.061,-0.0611,-0.0612,-0.0613,-0.0616,-0.0616,-0.0616,-0.0601,-0.0619,-0.0619,-0.0619,-0.059,-0.0589,-0.0589,0,0,0,0,0,0,-0.0595,-0.0595,-0.0595,-0.0596,-0.0596,-0.0604,-0.0603,-0.0605,-0.0604,-0.0611,-0.0612,-0.061,-0.0617,-0.0617,-0.061,-0.0602,-0.0619,-0.0618,-0.0591,-0.059,-0.0589,-0.0571,0,0,0,0,0,0,-0.0595,-0.0595,-0.0591,-0.0596,-0.0596,-0.0589,-0.0603,-0.0604,-0.0604,-0.0606,-0.061,-0.0611,-0.0617,-0.061,-0.0609,-0.0601,-0.0618,-0.0592,-0.059,-0.0589,-0.0573,-0.057,-0.0568,0,0,0,0,0,-0.0595,-0.0586,-0.059,-0.059,-0.0591,-0.0588,-0.0589,-0.0596,-0.0603,-0.0599,-0.0603,-0.0611,-0.0602,-0.0609,-0.0609,-0.06,-0.0592,-0.0591,-0.0589,-0.0574,-0.0571,-0.0568,0,0,0,0,0,0,-0.0579,-0.0587,-0.0592,-0.0584,-0.0585,-0.0591,-0.0586,-0.0593,-0.0592,-0.0593,-0.0602,-0.0603,-0.0595,-0.0597,-0.0604,-0.0588,-0.0599,-0.0597,-0.0587,-0.0584,-0.0581,-0.0581,-0.0618,0,0,0,0,0,-0.0575,-0.0572,-0.0579,-0.0571,-0.0571,-0.0578,-0.0577,-0.0583,-0.0585,-0.0585,-0.0589,-0.059,-0.0588,-0.0586,-0.0584,-0.0573,-0.0574,-0.0567,-0.0564,-0.0562,-0.0561,-0.0554,-0.0551,-0.0584,-0.0584,-0.0584,0,0,-0.0566,-0.0569,-0.0567,-0.0568,-0.0569,-0.0566,-0.0579,-0.0575,-0.0572,-0.0585,-0.0578,-0.0581,-0.0582,-0.0573,-0.0569,-0.0575,-0.0552,-0.0561,-0.0559,-0.0559,-0.0553,-0.0549,-0.0547,-0.0583,-0.0584,-0.0584,0,0,-0.0547,-0.055,-0.0543,-0.0544,-0.0547,-0.0552,-0.055,-0.0554,-0.0556,-0.055,-0.0559,-0.0556,-0.0552,-0.0552,-0.0552,-0.0532,-0.0539,-0.0531,-0.0518,-0.0511,-0.0509,-0.0506,-0.0499,-0.0496,-0.053,-0.0529,-0.0529,0,-0.0535,-0.0531,-0.0539,-0.0534,-0.0534,-0.0545,-0.0537,-0.0538,-0.054,-0.0539,-0.0545,-0.0539,-0.0541,-0.0532,-0.0527,-0.0527,-0.0524,-0.0531,-0.0508,-0.0506,-0.0504,-0.0497,-0.0494,-0.0528,-0.0529,-0.0529,-0.0529,0,-0.0516,-0.0512,-0.0507,-0.0508,-0.0507,-0.0501,-0.0507,-0.0505,-0.051,-0.0514,-0.0506,-0.0509,-0.0508,-0.0506,-0.0511,-0.0496,-0.05,-0.0507,-0.0518,-0.05,-0.0493,-0.049,-0.0527,-0.0527,-0.0528,-0.0528,0,0,-0.0488,-0.0493,-0.0491,-0.0491,-0.0494,-0.0491,-0.0485,-0.0484,-0.0481,-0.0481,-0.0476,-0.0472,-0.0478,-0.0478,-0.0483,-0.0477,-0.046,-0.0485,-0.0485,-0.048,-0.0444,-0.0438,-0.0435,-0.0465,-0.0464,-0.0464,-0.0443,0,-0.047,-0.0461,-0.0467,-0.0456,-0.0453,-0.0462,-0.0457,-0.0458,-0.0461,-0.0458,-0.0461,-0.0457,-0.0466,-0.0466,-0.046,-0.0463,-0.0453,-0.0465,-0.0459,-0.0459,-0.0459,-0.0431,-0.0426,-0.0406,-0.0441,-0.044,-0.044,0,-0.0448,-0.0447,-0.0436,-0.0439,-0.0437,-0.0433,-0.0431,-0.0428,-0.0429,-0.0431,-0.043,-0.0436,-0.043,-0.044,-0.0431,-0.0439,-0.0437,-0.0438,-0.0437,-0.0437,-0.0448,-0.043,-0.04,-0.0397,-0.0436,-0.0436,-0.0437,0,-0.0428,-0.0424,-0.0417,-0.0417,-0.042,-0.0416,-0.0417,-0.0418,-0.0417,-0.0415,-0.0414,-0.0412,-0.041,-0.0408,-0.0413,-0.042,-0.0402,-0.0414,-0.0404,-0.0404,-0.04,-0.04,-0.0369,-0.0399,-0.0399,-0.0399,-0.0399,0,-0.0408,-0.04,-0.0408,-0.0403,-0.0395,-0.0402,-0.0393,-0.0395,-0.0396,-0.0391,-0.04,-0.0395,-0.0402,-0.0398,-0.0402,-0.0393,-0.0392,-0.0393,-0.0395,-0.0393,-0.0392,-0.0391,-0.0393,-0.0398,-0.0398,-0.0398,-0.0398,0,-0.0384,-0.0389,-0.0382,-0.0385,-0.0386,-0.0379,-0.0382,-0.0377,-0.038,-0.0374,-0.0373,-0.0378,-0.0373,-0.0378,-0.0373,-0.0376,-0.0364,-0.0367,-0.0364,-0.0364,-0.0354,-0.0355,-0.0321,-0.0317,-0.035,-0.0349,-0.0349,0,-0.0371,-0.0365,-0.0368,-0.0365,-0.0366,-0.0362,-0.036,-0.0366,-0.0364,-0.0363,-0.0358,-0.0355,-0.0352,-0.0344,-0.0346,-0.0343,-0.0346,-0.0334,-0.0345,-0.0343,-0.0345,-0.0345,-0.0344,-0.0332,-0.0331,-0.0331,-0.0331,0,-0.0346,-0.0348,-0.0346,-0.0343,-0.0341,-0.0339,-0.0338,-0.0336,-0.0342,-0.0339,-0.0334,-0.0332,-0.0327,-0.0323,-0.032,-0.032,-0.0326,-0.0327,-0.0325,-0.0323,-0.0321,-0.0321,-0.0357,-0.0328,-0.0328,-0.0329,-0.0329,-0.0329,-0.0327,-0.0322,-0.0323,-0.0319,-0.0319,-0.0317,-0.0313,-0.0315,-0.0311,-0.0308,-0.0312,-0.0306,-0.0305,-0.0302,-0.0302,-0.0296,-0.0301,-0.0298,-0.0297,-0.0296,-0.0294,-0.0322,-0.0296,-0.0296,-0.0296,-0.0296,-0.0296,0,-0.0302,-0.0303,-0.0299,-0.0297,-0.0294,-0.03,-0.0299,-0.0296,-0.029,-0.029,-0.0286,-0.028,-0.0276,-0.0278,-0.0274,-0.0269,-0.0272,-0.0268,-0.0268,-0.0268,-0.029,-0.0293,-0.0266,-0.0266,-0.0266,-0.0266,-0.0266,-0.0266,-0.0289,-0.028,-0.0283,-0.0274,-0.0275,-0.0269,-0.0268,-0.0266,-0.0266,-0.0259,-0.0255,-0.0256,-0.0256,-0.0252,-0.0248,-0.0248,-0.0246,-0.0241,-0.0242,-0.0263,-0.0266,-0.0269,-0.0272,-0.0241,-0.024,-0.022,-0.022,-0.022]},{"header":{"parameterUnit":"m.s-1","parameterCategory":1,"la1":30.2991,"la2":30.254,"lo1":-89.0895,"lo2":-89.0444,"dy":0.0017,"dx":0.0017,"nx":28,"ny":28,"refTime":"2024-02-18T03:00:00:Z","depth":0,"parameterNumber":3,"parameterNumberName":"V-component_of_WINDS"},"data":[0,0,0,0,0,0,0,0,0,0,0,0,0,0,0,0,0,0,0,0,0,0,0,0,0,0,0,0,0,0,0,0,0,0,0,0,0,0,0,0,0,0,0,0,0,0,0,0,0,0,0,0,0,0,0,0,0,0,-4.8668,-4.8669,0,-4.8738,-4.8738,-4.8739,-4.8709,-4.8707,-4.8706,-4.8704,-4.877,-4.8773,-4.8777,0,0,0,0,0,0,0,0,0,0,0,0,0,-4.8505,-4.8508,-4.8668,-4.8669,-4.867,-4.8738,-4.8739,-4.8739,-4.8709,-4.8707,-4.8705,-4.8703,-4.8769,-4.8773,-4.8777,0,0,0,0,0,0,0,0,0,0,0,0,0,-4.8575,-4.8509,-4.8668,-4.8663,-4.8663,-4.8737,-4.8739,-4.874,-4.871,-4.8707,-4.8705,-4.8702,-4.8768,-4.8773,-4.8777,-4.8859,0,0,-4.8793,-4.8795,0,0,0,0,0,0,0,0,-4.8571,-4.8581,-4.8663,-4.8664,-4.8664,-4.8712,-4.8705,-4.8779,-4.871,-4.8692,-4.8704,-4.8701,-4.8753,-4.8759,-4.8777,-4.8862,-4.8865,-4.8793,-4.8796,-4.8798,-4.88,0,0,0,0,0,0,0,-4.8566,-4.8578,-4.8695,-4.8664,-4.8665,-4.8656,-4.8663,-4.8719,-4.8735,-4.8693,-4.8691,-4.87,-4.8752,-4.8772,-4.8778,-4.8865,-4.8793,-4.8797,-4.88,-4.8802,-4.9022,-4.9025,0,0,0,0,0,0,-4.8562,-4.8574,-4.8693,-4.8697,-4.8611,-4.8661,-4.8669,-4.8699,-4.8735,-4.8738,-4.8702,-4.8699,-4.8765,-4.8773,-4.8781,-4.888,-4.8798,-4.8803,-4.8806,-4.902,-4.9023,-4.9026,0,0,0,0,0,0,-4.8559,-4.8573,-4.869,-4.8635,-4.865,-4.8667,-4.8701,-4.8702,-4.8722,-4.8742,-4.8744,-4.872,-4.8763,-4.8773,-4.884,-4.8882,-4.8805,-4.881,-4.9016,-4.9021,-4.9025,-4.9078,0,0,0,0,0,0,-4.8554,-4.8572,-4.8604,-4.8636,-4.8653,-4.875,-4.8703,-4.8705,-4.8731,-4.8727,-4.8759,-4.8762,-4.8762,-4.8833,-4.8845,-4.8887,-4.8814,-4.9013,-4.9018,-4.9023,-4.9073,-4.9084,-4.9093,0,0,0,0,0,-4.8549,-4.8614,-4.8606,-4.862,-4.8693,-4.8753,-4.8762,-4.8763,-4.8735,-4.8767,-4.8779,-4.8761,-4.8875,-4.884,-4.8854,-4.8898,-4.901,-4.9017,-4.9023,-4.9068,-4.9082,-4.9093,0,0,0,0,0,0,-4.8584,-4.8619,-4.8609,-4.8688,-4.8718,-4.8748,-4.8788,-4.8776,-4.8814,-4.8808,-4.8805,-4.8813,-4.8883,-4.8896,-4.8857,-4.8979,-4.8938,-4.8948,-4.8968,-4.8981,-4.8991,-4.8987,-4.8818,0,0,0,0,0,-4.8601,-4.8648,-4.8675,-4.8742,-4.8758,-4.8771,-4.8796,-4.8795,-4.8825,-4.8837,-4.8854,-4.8883,-4.8926,-4.8954,-4.8994,-4.9074,-4.9082,-4.9111,-4.9121,-4.913,-4.9138,-4.9184,-4.9198,-4.9047,-4.9047,-4.9047,0,0,-4.8637,-4.8662,-4.8691,-4.875,-4.8773,-4.8821,-4.8781,-4.8833,-4.8869,-4.8844,-4.891,-4.8924,-4.8955,-4.903,-4.9064,-4.9044,-4.9182,-4.9138,-4.9144,-4.9149,-4.9192,-4.9206,-4.9219,-4.9052,-4.9051,-4.905,0,0,-4.8727,-4.875,-4.881,-4.8834,-4.8871,-4.8879,-4.8893,-4.8925,-4.8935,-4.9001,-4.8984,-4.9025,-4.9098,-4.9122,-4.9144,-4.9246,-4.923,-4.9258,-4.9312,-4.9357,-4.9369,-4.9379,-4.9417,-4.9431,-4.9267,-4.9267,-4.9267,0,-4.8766,-4.884,-4.8841,-4.8896,-4.8922,-4.8905,-4.8965,-4.8988,-4.9035,-4.9053,-4.903,-4.9124,-4.9143,-4.9225,-4.925,-4.9268,-4.9284,-4.9255,-4.9367,-4.9378,-4.9388,-4.9424,-4.9438,-4.927,-4.927,-4.9269,-4.9269,0,-4.8887,-4.8938,-4.8982,-4.9031,-4.9062,-4.9119,-4.9128,-4.916,-4.9155,-4.9166,-4.9234,-4.9258,-4.9303,-4.9322,-4.9317,-4.9403,-4.939,-4.9367,-4.9326,-4.9405,-4.944,-4.9453,-4.9275,-4.9274,-4.9273,-4.9272,0,0,-4.9001,-4.9052,-4.9068,-4.9091,-4.9131,-4.917,-4.9226,-4.9273,-4.9301,-4.9334,-4.9381,-4.9445,-4.9425,-4.9449,-4.9447,-4.9486,-4.9568,-4.9458,-4.9459,-4.948,-4.9666,-4.9685,-4.9701,-4.9557,-4.956,-4.9562,-4.9664,0,-4.9096,-4.9197,-4.9201,-4.9293,-4.9341,-4.9326,-4.9375,-4.9404,-4.9415,-4.9457,-4.9468,-4.9514,-4.9483,-4.9498,-4.9536,-4.955,-4.9605,-4.9542,-4.9601,-4.9604,-4.9596,-4.9718,-4.9738,-4.9833,-4.9677,-4.968,-4.9681,0,-4.922,-4.926,-4.9358,-4.9394,-4.9414,-4.9458,-4.9503,-4.9543,-4.9576,-4.9581,-4.9611,-4.9603,-4.966,-4.9616,-4.9695,-4.9652,-4.9676,-4.9687,-4.969,-4.9697,-4.9649,-4.973,-4.9864,-4.9879,-4.9702,-4.97,-4.9699,0,-4.9296,-4.9374,-4.9444,-4.9464,-4.9506,-4.9538,-4.9557,-4.9588,-4.9616,-4.9654,-4.9673,-4.9716,-4.974,-4.9774,-4.9778,-4.9745,-4.9858,-4.9814,-4.9864,-4.9865,-4.989,-4.9888,-5.0031,-4.9902,-4.9902,-4.9902,-4.9901,0,-4.9402,-4.9463,-4.9479,-4.9522,-4.959,-4.9593,-4.966,-4.9676,-4.9704,-4.9749,-4.9736,-4.9779,-4.9781,-4.9824,-4.9827,-4.9893,-4.9903,-4.9909,-4.991,-4.9912,-4.9911,-4.9929,-4.9923,-4.9906,-4.9905,-4.9904,-4.9903,0,-4.9499,-4.9512,-4.9588,-4.9623,-4.9633,-4.9682,-4.9711,-4.9752,-4.9763,-4.982,-4.9833,-4.985,-4.99,-4.9908,-4.9965,-4.9968,-5.0048,-5.004,-5.0038,-5.0037,-5.0088,-5.0084,-5.0248,-5.0271,-5.0125,-5.0127,-5.0128,0,-4.9568,-4.9615,-4.9656,-4.9687,-4.9709,-4.9757,-4.9788,-4.9792,-4.9824,-4.9867,-4.9902,-4.9952,-4.9992,-5.0073,-5.0089,-5.0134,-5.0128,-5.0183,-5.0135,-5.0136,-5.0132,-5.013,-5.0136,-5.0193,-5.0194,-5.0195,-5.0196,0,-4.9688,-4.9693,-4.9738,-4.9787,-4.9825,-4.9862,-4.9897,-4.9923,-4.9932,-4.9968,-5.0021,-5.0053,-5.0114,-5.0163,-5.0208,-5.0225,-5.0213,-5.0211,-5.0226,-5.0229,-5.0227,-5.0231,-5.0065,-5.0208,-5.0207,-5.0206,-5.0205,-5.0205,-4.9774,-4.9816,-4.9853,-4.9905,-4.9933,-4.9967,-5.0008,-5.0025,-5.007,-5.0122,-5.0121,-5.018,-5.0212,-5.0272,-5.0293,-5.0338,-5.032,-5.034,-5.0345,-5.0351,-5.0357,-5.0219,-5.0345,-5.0345,-5.0345,-5.0344,-5.0344,0,-4.9896,-4.9919,-4.9967,-5.0019,-5.006,-5.0046,-5.0085,-5.012,-5.0173,-5.0205,-5.0246,-5.0307,-5.0356,-5.0377,-5.0424,-5.0457,-5.0452,-5.0469,-5.0468,-5.0473,-5.0369,-5.0353,-5.0472,-5.0472,-5.0472,-5.0472,-5.0472,-5.0472,-4.9964,-5.0036,-5.0046,-5.0131,-5.0153,-5.0213,-5.0237,-5.0268,-5.0295,-5.0365,-5.0407,-5.0421,-5.0449,-5.0499,-5.0543,-5.0547,-5.0566,-5.0586,-5.0589,-5.0492,-5.0479,-5.0467,-5.0452,-5.059,-5.059,-5.0688,-5.0689,-5.069]}]]